Location: Poughquag
(41.6090°N, 73.6820°W)
Time: 10:34:18
(UTC-04:00)

S-56A Canister/Altair - Pass Details

Date: 31 May 2020
Orbit: 633 x 2499 km, 38.9° (Epoch: 06 July)

Event Time Altitude Azimuth Distance (km) Brightness Sun altitude
Rises 11:19:25 0° 282° (WNW) 4,651 11.3 62.4°
Reaches altitude 10° 11:22:26 10° 274° (W) 3,911 11.0 62.8°
Maximum altitude 11:32:00 38° 212° (SSW) 2,887 11.1 64.1°
Drops below altitude 10° 11:44:30 10° 151° (SSE) 5,068 12.2 65.8°
Sets 11:49:04 0° 145° (SE) 6,152 12.5 66.3°
